Regional Weather Roundup
Issued by NWS

Home | Current Version | Previous Version | Graphics & Text | Print | Product List | Glossary On
Versions: 1 2 3 4 5 6 7 8 9 10 11 12 13 14 15 16 17 18 19 20 21 22 23 24 25 26 27 28 29 30 31 32 33 34 35 36 37 38 39 40 41 42 43 44 45 46 47 48 49 50
000
ASUS43 KFSD 271010
RWRSD

WEATHER ROUNDUP FOR SOUTH DAKOTA
NATIONAL WEATHER SERVICE SIOUX FALLS SD
500 AM CDT THU APR 27 2017

NOTE: "FAIR" INDICATES FEW OR NO CLOUDS BELOW 12,000 FEET WITH NO
SIGNIFICANT WEATHER AND/OR OBSTRUCTIONS TO VISIBILITY.


SDZ001>005-009-010-012>017-271100-
NORTHWEST AND NORTH CENTRAL SOUTH DAKOTA

CITY           SKY/WX    TMP DP  RH WIND       PRES   REMARKS
BUFFALO          N/A     27  24  89 E10       29.61S WCI  17
FAITH            N/A     27  25  92 E6        29.71F WCI  20
MOBRIDGE       CLOUDY    32  24  72 N3        29.70F
$$

SDZ012>016-024>037-041>051-057-063-072>074-271100-
SOUTHWEST AND SOUTH CENTRAL SOUTH DAKOTA

CITY           SKY/WX    TMP DP  RH WIND       PRES   REMARKS
RAPID CTY ARPT CLEAR     28  24  85 N9        29.65F WCI  19
PIERRE         CLOUDY    28  25  88 NW7       29.71S WCI  21
CUSTER         CLOUDY    28  24  85 N3        29.60F
PHILIP         CLEAR     24  22  91 CALM      29.71S
PINE RIDGE     MOCLDY    27  25  92 CALM      29.65F
SPEARFISH      FAIR      27  25  93 SE3       29.63S
WINNER         FAIR      25  22  88 CALM      29.70S
$$

SDZ004>011-016>023-039-040-271100-
NORTHEAST SOUTH DAKOTA

CITY           SKY/WX    TMP DP  RH WIND       PRES   REMARKS
ABERDEEN       CLOUDY    29  24  82 NW9       29.71S WCI  20
WATERTOWN      CLOUDY    27  23  85 NW14      29.62F WCI  16
BROOKINGS      CLOUDY    28  25  88 NW14      29.62F WCI  17
SISSETON         N/A     28  24  85 N20       29.65F WCI  15
$$

SDZ017-020-022-023-036>040-048>070-271100-
SOUTHEAST SOUTH DAKOTA

CITY           SKY/WX    TMP DP  RH WIND       PRES   REMARKS
SIOUX FALLS    CLOUDY    31  26  82 NW18      29.64R WCI  19
HURON          CLOUDY    30  24  78 N10       29.70S WCI  21
CHAMBERLAIN    CLOUDY    33  30  90 W7        29.71R WCI  27
MITCHELL       CLOUDY    32  25  75 NW14      29.70S WCI  22
YANKTON        CLOUDY    32  27  80 NW10      29.66F WCI  24
$$

ABBREVIATIONS USED IN REMARKS
   TC - TEMPERATURE IN CELSIUS
  WCI - WIND CHILL INDEX
   HX - HEAT INDEX
  VSB - VISIBILITY





USA.gov is the U.S. government's official web portal to all federal, state and local government web resources and services.